When you browse on this site, cookies collect data to enhance your experience and personalize the content and advertising you see.
Visit our Privacy Policy to learn more. By continuing to use the site, you agree to this use of cookies and data.
  • In Österreich
  • Länderverzeichnis
  • Für 7 Tage
  • Wassertemperatur
  • Satellitenkarten
  • Wetterkarte
  • News
  • Widgets
  • user-avatar
    Anmelden

    Stündliche Wetter Nowiny

    Heute, 16 Februar, Samstag

    Zeit Temperatur Niederschläge Wind Luftdruck Luftfeuchtigkeit
    00:00 +4°C° 0 mm 1 m/S 770 mmHg 80%
    01:00 +4°C° 0 mm 1 m/S 769 mmHg 78%
    02:00 +4°C° 0 mm 1 m/S 769 mmHg 78%
    03:00 +4°C° 0 mm 1 m/S 769 mmHg 78%
    04:00 +3°C° 0 mm 2 m/S 768 mmHg 77%
    05:00 +3°C° 0 mm 2 m/S 768 mmHg 77%
    06:00 +3°C° 0 mm 2 m/S 768 mmHg 78%
    07:00 +2°C° 0 mm 2 m/S 768 mmHg 76%
    08:00 +3°C° 0 mm 3 m/S 768 mmHg 71%
    09:00 +4°C° 0 mm 3 m/S 767 mmHg 65%
    10:00 +7°C° 0 mm 3 m/S 767 mmHg 59%
    11:00 +8°C° 0 mm 3 m/S 767 mmHg 55%
    12:00 +10°C° 0 mm 4 m/S 767 mmHg 51%
    13:00 +13°C° 0 mm 3 m/S 766 mmHg 45%
    14:00 +12°C° 0 mm 3 m/S 766 mmHg 47%
    15:00 +12°C° 0 mm 3 m/S 765 mmHg 49%
    16:00 +12°C° 0 mm 3 m/S 765 mmHg 51%
    17:00 +10°C° 0 mm 3 m/S 765 mmHg 57%
    18:00 +9°C° 0 mm 3 m/S 765 mmHg 62%
    19:00 +8°C° 0 mm 3 m/S 765 mmHg 68%
    20:00 +7°C° 0 mm 3 m/S 765 mmHg 70%
    21:00 +7°C° 0 mm 3 m/S 765 mmHg 73%
    22:00 +5°C° 0 mm 3 m/S 765 mmHg 75%
    23:00 +5°C° 0 mm 3 m/S 765 mmHg 78%

    Morgen, 17 Februar, Sonntag

    Zeit Temperatur Niederschläge Wind Luftdruck Luftfeuchtigkeit
    00:00 +4°C° 0 mm 3 m/S 765 mmHg 80%
    01:00 +5°C° 0 mm 2 m/S 765 mmHg 83%
    02:00 +4°C° 0 mm 2 m/S 765 mmHg 85%
    03:00 +4°C° 0 mm 2 m/S 765 mmHg 87%
    04:00 +4°C° 0 mm 2 m/S 765 mmHg 89%
    05:00 +3°C° 0 mm 2 m/S 765 mmHg 90%
    06:00 +3°C° 0 mm 2 m/S 765 mmHg 91%
    07:00 +3°C° 0 mm 2 m/S 765 mmHg 92%
    08:00 +4°C° 0 mm 2 m/S 766 mmHg 86%
    09:00 +5°C° 0 mm 2 m/S 766 mmHg 81%
    10:00 +7°C° 0 mm 2 m/S 766 mmHg 75%
    11:00 +8°C° 0 mm 2 m/S 766 mmHg 71%
    12:00 +9°C° 0 mm 2 m/S 766 mmHg 66%
    13:00 +10°C° 0 mm 2 m/S 766 mmHg 62%
    14:00 +11°C° 0 mm 1 m/S 765 mmHg 63%
    15:00 +11°C° 0 mm 1 m/S 765 mmHg 64%
    16:00 +11°C° 0 mm 1 m/S 765 mmHg 65%
    17:00 +10°C° 0 mm 1 m/S 765 mmHg 69%
    18:00 +9°C° 0 mm 1 m/S 765 mmHg 73%
    19:00 +8°C° 0 mm 1 m/S 765 mmHg 77%
    20:00 +7°C° 0 mm 1 m/S 765 mmHg 79%
    21:00 +7°C° 0 mm 1 m/S 765 mmHg 80%
    22:00 +5°C° 0 mm 2 m/S 764 mmHg 81%
    23:00 +5°C° 0 mm 2 m/S 764 mmHg 81%

    übermorgen, 18 Februar, Montag

    Zeit Temperatur Niederschläge Wind Luftdruck Luftfeuchtigkeit
    00:00 +5°C° 0 mm 2 m/S 764 mmHg 81%
    01:00 +4°C° 0 mm 2 m/S 764 mmHg 82%
    02:00 +4°C° 0 mm 2 m/S 764 mmHg 81%
    03:00 +4°C° 0 mm 2 m/S 764 mmHg 81%
    04:00 +3°C° 0 mm 2 m/S 763 mmHg 80%
    05:00 +3°C° 0 mm 2 m/S 763 mmHg 80%
    06:00 +3°C° 0 mm 2 m/S 763 mmHg 81%
    07:00 +3°C° 0 mm 2 m/S 763 mmHg 81%
    08:00 +4°C° 0 mm 2 m/S 763 mmHg 75%
    09:00 +5°C° 0 mm 2 m/S 763 mmHg 69%
    10:00 +7°C° 0 mm 2 m/S 763 mmHg 63%
    11:00 +8°C° 0 mm 2 m/S 763 mmHg 59%
    12:00 +9°C° 0 mm 2 m/S 763 mmHg 54%
    13:00 +11°C° 0 mm 3 m/S 762 mmHg 50%
    14:00 +12°C° 0 mm 2 m/S 762 mmHg 51%
    15:00 +12°C° 0 mm 2 m/S 762 mmHg 52%
    16:00 +12°C° 0 mm 2 m/S 761 mmHg 53%
    17:00 +9°C° 0 mm 2 m/S 761 mmHg 58%
    18:00 +8°C° 0 mm 2 m/S 761 mmHg 62%
    19:00 +7°C° 0 mm 2 m/S 761 mmHg 67%
    20:00 +6°C° 0 mm 2 m/S 761 mmHg 69%
    21:00 +6°C° 0 mm 2 m/S 761 mmHg 71%
    22:00 +5°C° 0 mm 2 m/S 761 mmHg 73%
    23:00 +5°C° 0 mm 2 m/S 761 mmHg 74%

    19 Februar, Dienstag

    Zeit Temperatur Niederschläge Wind Luftdruck Luftfeuchtigkeit
    00:00 +4°C° 0 mm 3 m/S 760 mmHg 75%
    01:00 +3°C° 0 mm 3 m/S 760 mmHg 76%
    02:00 +3°C° 0 mm 3 m/S 760 mmHg 78%
    03:00 +3°C° 0 mm 3 m/S 760 mmHg 81%
    04:00 +3°C° 0 mm 3 m/S 759 mmHg 83%
    05:00 +3°C° 0 mm 3 m/S 759 mmHg 82%
    06:00 +2°C° 0 mm 3 m/S 759 mmHg 82%
    07:00 +2°C° 0 mm 3 m/S 759 mmHg 82%
    08:00 +4°C° 0 mm 4 m/S 759 mmHg 75%
    09:00 +5°C° 0 mm 4 m/S 758 mmHg 68%
    10:00 +6°C° 0 mm 4 m/S 758 mmHg 62%
    11:00 +7°C° 0 mm 5 m/S 758 mmHg 59%
    12:00 +9°C° 0 mm 5 m/S 758 mmHg 56%
    13:00 +10°C° 0 mm 5 m/S 758 mmHg 54%
    14:00 +9°C° 0.2 mm 5 m/S 758 mmHg 62%
    15:00 +8°C° 0.2 mm 6 m/S 757 mmHg 70%
    16:00 +7°C° 0.2 mm 6 m/S 757 mmHg 78%
    17:00 +7°C° 0.1 mm 5 m/S 758 mmHg 80%
    18:00 +6°C° 0.1 mm 4 m/S 758 mmHg 82%
    19:00 +5°C° 0.1 mm 4 m/S 759 mmHg 84%
    20:00 +5°C° 0 mm 4 m/S 759 mmHg 84%
    21:00 +5°C° 0 mm 4 m/S 759 mmHg 85%
    22:00 +4°C° 0 mm 4 m/S 760 mmHg 85%
    23:00 +4°C° 0 mm 4 m/S 760 mmHg 85%

    20 Februar, Mittwoch

    Zeit Temperatur Niederschläge Wind Luftdruck Luftfeuchtigkeit
    00:00 +4°C° 0 mm 4 m/S 760 mmHg 86%
    01:00 +4°C° 0 mm 4 m/S 760 mmHg 87%
    02:00 +3°C° 0 mm 4 m/S 761 mmHg 88%
    03:00 +3°C° 0 mm 4 m/S 761 mmHg 89%
    04:00 +3°C° 0 mm 4 m/S 761 mmHg 91%
    05:00 +1°C° 0 mm 4 m/S 761 mmHg 90%
    06:00 +1°C° 0 mm 4 m/S 761 mmHg 90%
    07:00 +1°C° 0 mm 4 m/S 762 mmHg 89%
    08:00 +2°C° 0 mm 5 m/S 762 mmHg 86%
    09:00 +2°C° 0 mm 5 m/S 763 mmHg 83%
    10:00 +3°C° 0 mm 5 m/S 763 mmHg 79%
    11:00 +5°C° 0 mm 5 m/S 763 mmHg 75%
    12:00 +6°C° 0 mm 5 m/S 763 mmHg 70%
    13:00 +7°C° 0 mm 5 m/S 763 mmHg 65%
    14:00 +7°C° 0 mm 5 m/S 763 mmHg 67%
    15:00 +7°C° 0 mm 4 m/S 763 mmHg 69%
    16:00 +8°C° 0 mm 3 m/S 763 mmHg 71%
    17:00 +7°C° 0 mm 3 m/S 764 mmHg 74%
    18:00 +7°C° 0 mm 3 m/S 764 mmHg 77%
    19:00 +7°C° 0 mm 3 m/S 764 mmHg 81%
    20:00 +5°C° 0 mm 3 m/S 764 mmHg 82%
    21:00 +5°C° 0 mm 3 m/S 764 mmHg 84%
    22:00 +5°C° 0 mm 3 m/S 765 mmHg 85%
    23:00 +5°C° 0 mm 3 m/S 765 mmHg 87%

    21 Februar, Donnerstag

    Zeit Temperatur Niederschläge Wind Luftdruck Luftfeuchtigkeit
    00:00 +4°C° 0 mm 3 m/S 765 mmHg 88%
    01:00 +4°C° 0 mm 3 m/S 765 mmHg 89%
    02:00 +4°C° 0.2 mm 3 m/S 765 mmHg 89%
    03:00 +4°C° 0.2 mm 3 m/S 764 mmHg 90%
    04:00 +4°C° 0.2 mm 3 m/S 764 mmHg 90%
    05:00 +4°C° 0.2 mm 3 m/S 764 mmHg 90%
    06:00 +4°C° 0.2 mm 3 m/S 764 mmHg 89%
    07:00 +4°C° 0.2 mm 3 m/S 764 mmHg 89%
    08:00 +5°C° 0 mm 3 m/S 764 mmHg 85%
    09:00 +6°C° 0 mm 4 m/S 764 mmHg 81%
    10:00 +6°C° 0 mm 4 m/S 764 mmHg 77%
    11:00 +7°C° 0 mm 4 m/S 764 mmHg 76%
    12:00 +7°C° 0 mm 4 m/S 763 mmHg 74%
    13:00 +8°C° 0 mm 4 m/S 763 mmHg 73%
    14:00 +7°C° 0.3 mm 4 m/S 763 mmHg 77%
    15:00 +7°C° 0.3 mm 4 m/S 763 mmHg 81%
    16:00 +7°C° 0.3 mm 4 m/S 763 mmHg 86%
    17:00 +7°C° 0.3 mm 4 m/S 763 mmHg 87%
    18:00 +6°C° 0.3 mm 4 m/S 763 mmHg 88%
    19:00 +7°C° 0.3 mm 3 m/S 763 mmHg 89%
    20:00 +6°C° 0.1 mm 4 m/S 763 mmHg 90%
    21:00 +6°C° 0.1 mm 4 m/S 763 mmHg 90%
    22:00 +6°C° 0.1 mm 4 m/S 763 mmHg 91%
    23:00 +6°C° 0.9 mm 4 m/S 763 mmHg 92%
    Mehr zeigen